Location: Oroua River
(40.4333°S, 175.4333°E)
Time: 12:06:29
(UTC+00:00)

Okean 1-7 - Pass Details

Date: 03 February 2023
Orbit: 587 x 612 km, 82.5° (Epoch: 31 March)

Event Time Altitude Azimuth Distance (km) Brightness Sun altitude
Exits shadow 15:06:11 43° 246° (WSW) 880 3.6 -22.8°
Drops below altitude 10° 15:10:09 10° 186° (S) 2,010 6.2 -22.3°
Sets 15:12:29 0° 179° (S) 2,925 7.3 -22.0°
